sat.trackr.live / text

‹ back to catalog

STARLINK-31342

NORAD 59166 · 2024-044Q

PAYLOAD ACTIVE UNKNOWN

§ Identity

Operator
Country
US
Launch date
2024-03-04
Launch site
AFETR
Launch vehicle
Mass (kg)
RCS (m²)

Purposes: comms

External: N2YO · Heavens-Above · Gunter

§ Orbital elements

Epoch: 2026-05-23T23:55:45.015456Z

Period
94.27 min
Inclination
43.0029°
Eccentricity
0.0001401
Mean motion
15.27567155 rev/d
Perigee alt
482.1 km
Apogee alt
484.0 km
Semi-major
6,861.2 km
B*
-4.6189e-5
RAAN
41.6628°
Arg perigee
262.6975°
Mean anomaly
97.3718°
Rev number
12,511

§ Raw data

STARLINK-313421 59166U 24044Q   26143.99704879 -.00001532  00000+0 -46189-4 0  99942 59166  43.0029  41.6628 0001401 262.6975  97.3718 15.27567155125116

JSON: /api/v1/satellites/59166 · /tle

For live sub-satellite position, see the globe view (requires WebGL).

§ Visibility from observer

Set your observer location to see the next 7 days of passes ≥ 10°. The values pass through the URL so the page stays shareable.

No JS? Fill the form by hand. The geolocation button needs JavaScript.